Location: Équennes
(49.7375°N, 1.9622°E)
Time: 00:32:35
(UTC+00:00)

Cosmos 1656 - Pass Details

Date: 28 January 2023
Orbit: 798 x 848 km, 71.1° (Epoch: 31 March)

Event Time Altitude Azimuth Distance (km) Brightness Sun altitude
Rises 17:13:56 0° 217° (SW) 3,332 7.9 -5.8°
Reaches altitude 10° 17:16:24 10° 220° (SW) 2,397 7.2 -6.2°
Maximum altitude 17:21:49 63° 302° (WNW) 896 4.1 -7.0°
Drops below altitude 10° 17:27:15 10° 24° (NNE) 2,387 5.7 -7.8°
Sets 17:29:41 0° 28° (NNE) 3,319 6.4 -8.2°
Enters shadow 17:29:41 - 28° (NNE) 3,319 6.4 -8.2°
